Regional Weather Roundup
Issued by NWS

Home | Current Version | Previous Version | Graphics & Text | Print | Product List | Glossary On
Versions: 1 2 3 4 5 6 7 8 9 10 11 12 13 14 15 16 17 18 19 20 21 22 23 24 25 26 27 28 29 30 31 32 33 34 35 36 37 38 39 40 41 42 43 44 45 46 47 48 49 50
000
ASUS43 KLOT 250403
RWRIL

ILLINOIS REGIONAL WEATHER ROUNDUP
NATIONAL WEATHER SERVICE CHICAGO/ROMEOVILLE IL
1100 PM CDT FRI MAR 24 2017

NOTE: "FAIR" INDICATES FEW OR NO CLOUDS BELOW 12,000 FEET WITH NO
SIGNIFICANT WEATHER AND/OR OBSTRUCTIONS TO VISIBILITY.

* THESE STATIONS ARE NOT UNDER NWS QUALITY CONTROL. THEY ALSO MAY NOT
  REPORT WEATHER SUCH AS PRECIPITATION OR FOG.

ILZ001-002-007-009-015-016-024-250500-
NORTHWEST ILLINOIS

CITY           SKY/WX    TMP DP  RH WIND       PRES   REMARKS
MOLINE         LGT RAIN  56  54  93 N8        29.98F FOG
STERLING*      LGT RAIN  45  43  93 E18       30.01F
SAVANNA*       CLOUDY    46  43  89 NE10G16   30.04R FOG
$$

ILZ003-004-008-010-011-017-018-250500-
NORTH CENTRAL ILLINOIS

CITY           SKY/WX    TMP DP  RH WIND       PRES   REMARKS
ROCKFORD       LGT RAIN  42  38  85 NE14      30.07F
FREEPORT*      DRIZZLE   42  40  92 NE16G22   30.08R
ROCHELLE*      CLOUDY    42  40  91 E17       30.04S FOG
DE KALB*       CLOUDY    41  39  91 NE15      30.05S
PERU*          CLOUDY    47  39  71 NE15      30.02R
$$

ILZ005-006-012>014-019>023-250500-
NORTHEAST ILLINOIS

CITY           SKY/WX    TMP DP  RH WIND       PRES   REMARKS
CHICAGO-OHARE  CLOUDY    43  36  76 N15       30.07S
CHICAGO-MIDWAY CLOUDY    42  39  89 N20G25    30.08R
AURORA         MOCLDY    45  37  73 NE15      30.04F
LANSING*       CLOUDY    40  39  99 N13       30.06S FOG
JOLIET*        CLOUDY    44  41  89 NE13G21   30.04S
WAUKEGAN       LGT RAIN  39  37  92 N10       30.10R WCI  32
DUPAGE AIRPORT CLOUDY    42  38  85 NE15      30.05F
WHEELING       CLOUDY    41  38  89 N14       30.08F
MORRIS*        CLOUDY    44  40  86 NE9       30.03R
NORTHERLY ISL    N/A     40  37  89 N17         N/A
$$

LMZ740>746-250500-
SOUTHERN LAKE MICHIGAN

STATION/POSITION SKY/WX   TEMP    WIND        PRES    VSBY  WAVE
                          AIR SEA DIR/SP/G                  HT/PER
                          (F)     (DEG/KT/KT) (MB)    (MI)  (FT/S)
HARRISON CRIB                     340/ 19/ 22   N/A
BURNHAM HARBOR                    360/ 14/ 19   N/A
CALUMET HARBOR                    330/ 14/ 19 1017.5S
BURNS HARBOR               39     330/  6/  7 1018.3F
MICHIGAN CITY              39      40/  3/  4   N/A
$$

ILZ025>027-034>036-040-047-049-050-058-095>099-250500-
WEST-CENTRAL ILLINOIS

CITY           SKY/WX    TMP DP  RH WIND       PRES   REMARKS
QUINCY         CLOUDY    57  56  96 E12       29.92F
GALESBURG*     CLOUDY    54  54 100 NE7       29.97F
MACOMB*        CLOUDY    55  55  99 E7        30.00S
JACKSONVILLE*  LGT RAIN  59  53  79 NE8       29.96S
PITTSFIELD*    CLOUDY    60  55  83 NE9       29.96F
$$

ILZ028>032-037-038-041>044-048-051>054-059>061-250500-
CENTRAL ILLINOIS

CITY           SKY/WX    TMP DP  RH WIND       PRES   REMARKS
PONTIAC        CLOUDY    59  51  73 N6        30.01R
BLOOMINGTON    CLOUDY    61  50  67 NE8       30.01F
DECATUR        CLOUDY    65  55  70 S14       30.00F
PEORIA         CLOUDY    60  53  77 NE7       30.00R
LINCOLN*       CLOUDY    60  51  71 E5        29.99S
SPRINGFIELD    CLOUDY    66  55  67 S7        29.97F
TAYLORVILLE    NOT AVBL
$$

ILZ033-039-045-046-055>057-062-063-250500-
EAST-CENTRAL ILLINOIS

CITY           SKY/WX    TMP DP  RH WIND       PRES   REMARKS
CHAMPAIGN      CLOUDY    64  53  67 S13       30.01F
RANTOUL*       MOCLDY    65  57  73 S10       30.01S
MATTOON        MOCLDY    64  55  72 S12       30.02S
PARIS*         CLOUDY    64  55  72 S14       30.04F
$$

ILZ079-100>102-250500-
SOUTHWEST ILLINOIS

CITY           SKY/WX    TMP DP  RH WIND       PRES   REMARKS
ALTON          CLOUDY    65  56  73 SE12      29.96F
CAHOKIA*       LGT RAIN  66  57  72 SE10      29.94F
SPARTA*        CLOUDY    65  56  73 SE9       29.98F
$$

ILZ064>066-069>071-074>076-080>082-084>086-088>090-092>094-250500-
SOUTH-CENTRAL ILLINOIS

CITY           SKY/WX    TMP DP  RH WIND       PRES   REMARKS
CARBONDALE     MOCLDY    66  56  70 SE10      29.99F
CAIRO*         CLOUDY    66  56  70 SE13      30.00F
EFFINGHAM*     CLOUDY    64  56  75 SE9       30.04F
MARION         CLOUDY    68  55  64 SE10G17   30.01F
MT. VERNON     CLOUDY    65  55  70 SE8       30.01F
CENTRALIA*     CLOUDY    66  57  72 SE12      30.00F
SALEM*         CLOUDY    66  55  67 SE6       30.01F
$$

ILZ067-068-072-073-078-083-087-091-250500-
SOUTHEAST ILLINOIS

CITY           SKY/WX    TMP DP  RH WIND       PRES   REMARKS
LAWRENCEVILLE  CLOUDY    59  52  77 SE9       30.06F
FLORA*         CLOUDY    61  55  79 SE7       30.03F
FAIRFIELD*     CLOUDY    65  55  69 SE6       30.03F
HARRISBURG*    CLOUDY    61  55  81 SE7       30.04F
ROBINSON*      CLOUDY    61  53  73 S9        30.06F
CARMI*         PTCLDY    60  55  81 SE8       30.04F
$$

ABBREVIATIONS USED IN REMARKS
   TC - TEMPERATURE IN CELSIUS
  WCI - WIND CHILL INDEX
   HX - HEAT INDEX
  VSB - VISIBILITY
$$





USA.gov is the U.S. government's official web portal to all federal, state and local government web resources and services.